Weather History for Wise, VA

Change the Weather History Date:

Saturday, February 16, 2013

  Actual Average Record
Temperature  
Mean Temperature 26 °F -  
Max Temperature 32 °F 44 °F 64 °F (2006)
Min Temperature 21 °F 27 °F 10 °F (2007)
Degree Days  
Heating Degree Days 38    
Moisture  
Dew Point 23 °F    
Average Humidity 87    
Maximum Humidity 100    
Minimum Humidity 64    
Precipitation  
Precipitation 0.00 in - - ()
Sea Level Pressure  
Sea Level Pressure 29.93 in    
Wind  
Wind Speed 6 mph (NW)    
Max Wind Speed 14 mph    
Max Gust Speed 23 mph    
Visibility 9 miles    
Events Snow    
Averages and records for this station are not official NWS values.
T = Trace of Precipitation, MM = Missing Value Source: NWS Daily Summary

Daily Weather History Graph

Daily Weather History Graph

Search for Another Location

Airport:

Trip Planner

Search our weather history database for the weather conditions in past years. The results will help you decide how hot, cold, wet, or windy it might be!

Date:

Astronomy

Feb. 16, 2013 Rise Set
Actual Time 7:17 AM EST 6:11 PM EST
Civil Twilight 6:50 AM EST 6:38 PM EST
Nautical Twilight 6:20 AM EST 7:08 PM EST
Astronomical Twilight 5:50 AM EST 7:38 PM EST
Moon 10:39 AM EST (2/16) 12:00 AM EST (2/16)
Length of Visible Light 11h 47m
Length of Day
10h 54m
Waxing Crescent, 39% of the Moon is Illuminated
Feb 16
Waxing Crescent
Feb 17
First Quarter
Feb 25
Full
Mar 4
Last Quarter
Mar 11
New

Hourly Weather History & Observations

Time (EST) Temp. Windchill Dew Point Humidity Pressure Visibility Wind Dir Wind Speed Gust Speed Precip Events Conditions
12:15 AM 32.0 °F 28.7 °F 32.0 °F 100% 30.00 in 10.0 mi NW 3.5 mph - N/A   Overcast
12:35 AM 30.2 °F 26.7 °F 30.2 °F 100% 30.00 in 10.0 mi NNW 3.5 mph - N/A   Mostly Cloudy
12:55 AM 30.2 °F 26.7 °F 30.2 °F 100% 30.00 in 10.0 mi NW 3.5 mph - N/A   Overcast
1:15 AM 30.2 °F 25.4 °F 30.2 °F 100% 29.98 in 10.0 mi NW 4.6 mph - N/A   Overcast
1:35 AM 30.2 °F 26.7 °F 30.2 °F 100% 29.98 in 10.0 mi NNW 3.5 mph - N/A   Overcast
1:55 AM 30.2 °F - 30.2 °F 100% 29.97 in 10.0 mi Calm Calm - N/A   Overcast
2:15 AM 30.2 °F 26.7 °F 30.2 °F 100% 29.96 in 10.0 mi North 3.5 mph - N/A   Overcast
2:35 AM 30.2 °F 23.4 °F 30.2 °F 100% 29.96 in 10.0 mi NNW 6.9 mph - N/A   Overcast
2:55 AM 30.2 °F 23.4 °F 30.2 °F 100% 29.96 in 10.0 mi NNW 6.9 mph - N/A   Overcast
3:15 AM 30.2 °F 24.3 °F 30.2 °F 100% 29.95 in 10.0 mi NNW 5.8 mph - N/A   Overcast
3:35 AM 30.2 °F 25.4 °F 30.2 °F 100% 29.95 in 7.0 mi NW 4.6 mph - N/A   Overcast
3:55 AM 30.2 °F 22.6 °F 30.2 °F 100% 29.95 in 7.0 mi NNW 8.1 mph - N/A Snow Light Snow
4:15 AM 30.2 °F 22.6 °F 30.2 °F 100% 29.94 in 7.0 mi NNW 8.1 mph - N/A Snow Light Snow
4:35 AM 28.4 °F 21.2 °F 28.4 °F 100% 29.94 in 3.0 mi NNW 6.9 mph - N/A Snow Light Snow
4:55 AM 28.4 °F 23.3 °F 28.4 °F 100% 29.94 in 10.0 mi NNW 4.6 mph - N/A   Overcast
5:15 AM 28.4 °F 22.2 °F 28.4 °F 100% 29.93 in 10.0 mi NNW 5.8 mph - N/A   Overcast
5:35 AM 28.4 °F 21.2 °F 28.4 °F 100% 29.94 in 10.0 mi North 6.9 mph - N/A Snow Light Snow
5:55 AM 28.4 °F 20.4 °F 26.6 °F 93% 29.93 in 10.0 mi NNW 8.1 mph - N/A Snow Light Snow
6:15 AM 26.6 °F 19.1 °F 26.6 °F 100% 29.93 in 10.0 mi North 6.9 mph - N/A Snow Light Snow
6:35 AM 26.6 °F 21.2 °F 26.6 °F 100% 29.93 in 10.0 mi North 4.6 mph - N/A   Overcast
6:55 AM 26.6 °F 21.2 °F 26.6 °F 100% 29.93 in 10.0 mi NNW 4.6 mph - N/A   Overcast
7:15 AM 26.6 °F 20.0 °F 26.6 °F 100% 29.93 in 10.0 mi NNW 5.8 mph - N/A   Overcast
7:35 AM 26.6 °F 19.1 °F 24.8 °F 93% 29.93 in 10.0 mi North 6.9 mph - N/A   Overcast
7:55 AM 26.6 °F 21.2 °F 24.8 °F 93% 29.93 in 7.0 mi NNW 4.6 mph - N/A   Overcast
8:15 AM 26.6 °F 21.2 °F 24.8 °F 93% 29.93 in 10.0 mi NNW 4.6 mph - N/A Snow Light Snow
8:35 AM 26.6 °F 20.0 °F 24.8 °F 93% 29.93 in 10.0 mi NNW 5.8 mph - N/A   Overcast
8:55 AM 26.6 °F 17.5 °F 23.0 °F 86% 29.93 in 7.0 mi North 9.2 mph - N/A Snow Light Snow
9:15 AM 26.6 °F 21.2 °F 23.0 °F 86% 29.93 in 4.0 mi North 4.6 mph - N/A Snow Light Snow
9:35 AM 26.6 °F 21.2 °F 24.8 °F 93% 29.93 in 4.0 mi NNW 4.6 mph - N/A Snow Light Snow
9:55 AM 26.6 °F 20.0 °F 23.0 °F 86% 29.92 in 5.0 mi NNW 5.8 mph - N/A Snow Light Snow
10:15 AM 26.6 °F 20.0 °F 23.0 °F 86% 29.92 in 4.0 mi NNW 5.8 mph - N/A Snow Light Snow
10:35 AM 26.6 °F 19.1 °F 23.0 °F 86% 29.92 in 3.0 mi North 6.9 mph - N/A Snow Light Snow
1:15 PM 28.4 °F 23.3 °F 19.4 °F 69% 29.90 in 10.0 mi WNW 4.6 mph - N/A   Mostly Cloudy
1:35 PM 28.4 °F 18.0 °F 19.4 °F 69% 29.89 in 10.0 mi NW 12.7 mph 18.4 mph N/A   Mostly Cloudy
1:55 PM 28.4 °F 22.2 °F 17.6 °F 64% 29.89 in 10.0 mi NW 5.8 mph - N/A   Overcast
2:15 PM 28.4 °F 20.4 °F 19.4 °F 69% 29.89 in 10.0 mi NNW 8.1 mph - N/A   Overcast
2:35 PM 28.4 °F 18.0 °F 17.6 °F 64% 29.89 in 10.0 mi West 12.7 mph - N/A   Overcast
2:55 PM 28.4 °F 17.5 °F 17.6 °F 64% 29.89 in 10.0 mi NW 13.8 mph 19.6 mph N/A   Overcast
3:15 PM 28.4 °F 19.7 °F 17.6 °F 64% 29.88 in 10.0 mi WNW 9.2 mph - N/A   Overcast
3:35 PM 28.4 °F 21.2 °F 17.6 °F 64% 29.88 in 10.0 mi WNW 6.9 mph 18.4 mph N/A   Overcast
3:55 PM 28.4 °F 19.1 °F 19.4 °F 69% 29.88 in 7.0 mi NNW 10.4 mph - N/A Snow Light Snow
4:15 PM 28.4 °F 23.3 °F 19.4 °F 69% 29.89 in 10.0 mi NNW 4.6 mph - N/A   Mostly Cloudy
4:35 PM 24.8 °F 15.3 °F 21.2 °F 86% 29.90 in 0.2 mi WNW 9.2 mph 23.0 mph N/A Snow Light Snow
4:55 PM 24.8 °F 16.9 °F 19.4 °F 80% 29.89 in 10.0 mi WNW 6.9 mph - N/A   Overcast
5:15 PM 26.6 °F 16.8 °F 19.4 °F 74% 29.90 in 10.0 mi NW 10.4 mph - N/A   Overcast
5:35 PM 24.8 °F 15.3 °F 19.4 °F 80% 29.90 in 5.0 mi NW 9.2 mph - N/A Snow Light Snow
5:55 PM 24.8 °F 14.6 °F 19.4 °F 80% 29.90 in 10.0 mi WNW 10.4 mph - N/A   Mostly Cloudy
6:15 PM 24.8 °F 13.4 °F 19.4 °F 80% 29.91 in 10.0 mi WNW 12.7 mph 16.1 mph N/A   Mostly Cloudy
6:35 PM 23.0 °F 11.7 °F 19.4 °F 86% 29.91 in 3.0 mi West 11.5 mph 16.1 mph N/A Snow Light Snow
6:55 PM 23.0 °F 10.6 °F 19.4 °F 86% 29.92 in 4.0 mi NW 13.8 mph 19.6 mph N/A Snow Light Snow
7:15 PM 23.0 °F 12.4 °F 19.4 °F 86% 29.92 in 10.0 mi NW 10.4 mph 17.3 mph N/A   Overcast
7:35 PM 23.0 °F 13.9 °F 19.4 °F 86% 29.92 in 7.0 mi WNW 8.1 mph 16.1 mph N/A   Overcast
7:55 PM 23.0 °F 13.1 °F 19.4 °F 86% 29.92 in 10.0 mi WNW 9.2 mph - N/A   Overcast
8:15 PM 23.0 °F 13.9 °F 19.4 °F 86% 29.92 in 10.0 mi WNW 8.1 mph - N/A   Overcast
8:35 PM 23.0 °F 14.7 °F 19.4 °F 86% 29.92 in 10.0 mi West 6.9 mph - N/A   Overcast
8:55 PM 21.2 °F 11.7 °F 19.4 °F 93% 29.92 in 10.0 mi West 8.1 mph - N/A   Mostly Cloudy
9:15 PM 21.2 °F 10.9 °F 17.6 °F 86% 29.93 in 10.0 mi WNW 9.2 mph - N/A   Scattered Clouds
9:35 PM 21.2 °F 11.7 °F 17.6 °F 86% 29.94 in 10.0 mi WNW 8.1 mph - N/A   Clear
9:55 PM 21.2 °F 13.6 °F 17.6 °F 86% 29.94 in 10.0 mi WNW 5.8 mph - N/A   Scattered Clouds
10:15 PM 23.0 °F 15.8 °F 19.4 °F 86% 29.94 in 10.0 mi WNW 5.8 mph - N/A   Overcast
10:35 PM 23.0 °F 13.1 °F 17.6 °F 80% 29.94 in 10.0 mi WNW 9.2 mph - N/A   Overcast
10:55 PM 23.0 °F 12.4 °F 17.6 °F 80% 29.94 in 10.0 mi WNW 10.4 mph 16.1 mph N/A   Overcast
11:15 PM 23.0 °F 13.1 °F 15.8 °F 74% 29.94 in 10.0 mi WNW 9.2 mph - N/A   Overcast
11:35 PM 21.2 °F 8.9 °F 15.8 °F 80% 29.94 in 3.0 mi WNW 12.7 mph 19.6 mph N/A Snow Light Snow
11:55 PM 21.2 °F 10.1 °F 12.2 °F 68% 29.94 in 10.0 mi WNW 10.4 mph 20.7 mph N/A   Overcast